Vertical_Velocity
-4 -3 -2 -0 2 2 2 -1 -2 -1 1 -3 -5 1 -0 -1 -2 1 -2 -2 3 3 -1 3 -2 2 4 7 3 3 11 -0 -10 3 -13 -4 3 -1 -1 1 5 -2 -0 1 -1
1 1 -1 -4 0 1 -1 1 0 1 -5 -3 -3 -4 -2 -2 2 -1 1 3 0 1 2 -5 5 -1 8 1 5 9 8 -9 -5 -2 -4 -3 5 -0 12 3 -2 2 -0 -4 -6
-1 -3 -4 1 0 -1 0 -2 -1 -2 -1 -3 -4 -2 -0 -5 -1 5 -2 -3 -0 1 0 3 5 2 8 5 -2 -5 -2 -4 -6 -4 4 -1 2 -3 4 -1 -7 -4 -3 -2 1
-1 2 -1 -6 -4 -1 -3 2 -3 1 4 -2 -4 -4 -4 0 11 0 -1 -2 -1 -2 -0 2 3 7 5 2 -3 11 -2 1 -8 0 4 -0 -0 -3 7 -19 -9 -1 0 0 -1
-2 -0 0 -3 -1 -2 -2 2 -4 -1 -0 -2 1 -9 -2 2 -10 3 6 1 2 1 0 0 4 1 1 0 7 8 -5 2 -3 -0 -2 6 -4 -8 -5 -7 0 2 -0 -4 -2
0 0 -2 -3 -3 1 -1 -2 1 -2 0 -1 -4 2 -0 5 -7 -4 -0 3 6 2 -0 -0 3 -2 1 -1 7 3 -0 -3 -1 -4 0 12 -9 28 -17 1 -2 2 -3 -0 -2
-3 -3 2 -5 -0 1 -0 -6 -2 0 3 4 -6 -0 2 -18 -2 -2 -0 0 -4 1 4 1 -2 6 1 1 1 -2 7 -1 -3 -6 -5 7 1 -3 -14 5 -1 -3 -3 0 -5
0 -5 -1 -2 -2 2 -2 1 -2 -4 -2 6 -4 -4 -11 -3 -1 -2 -4 -2 -1 3 -2 5 4 -5 9 -1 1 4 8 5 -6 1 -7 11 -14 -2 -4 5 -1 -1 -1 -0 -3
-0 -1 -4 -2 -4 -1 -5 -5 5 1 -0 -7 -1 3 -3 -3 -1 -1 -2 5 0 2 -1 1 3 -4 8 6 4 3 -1 1 -6 -1 0 12 -6 -3 -0 1 -2 -2 -2 -0 2
-3 -2 -3 -5 -3 -2 2 5 -2 -6 -1 5 1 5 -4 8 5 5 2 7 2 4 6 2 5 3 7 7 -4 -2 3 -0 -1 -5 1 -3 -9 -7 -7 5 -3 -3 -1 1 -0
-2 -2 -3 -5 2 0 2 -3 5 5 4 -0 10 0 -8 -3 -7 -2 7 5 2 5 3 -1 10 -3 -8 -3 -2 2 4 2 -7 -9 17 -2 -1 -6 -5 4 1 -2 -1 -2 -1
-5 -5 0 0 3 -4 -7 -7 -7 -6 -6 -2 -2 -6 -1 -3 -2 -3 -1 10 9 -1 4 11 -2 -9 0 2 4 3 2 -7 -8 -2 14 -1 -10 -6 -1 -7 -2 -1 -3 -2 -1
-1 -3 2 1 -8 -1 -3 -1 -1 0 4 -4 -1 2 6 -1 -1 -1 -3 -1 -0 6 -0 2 -2 0 4 1 6 -1 2 -2 5 -5 -4 8 -10 -1 -3 1 2 -2 -4 1 -4
-2 -1 -2 1 -2 -1 1 -3 1 3 6 8 4 7 2 0 0 -1 -3 7 8 -2 0 -2 -9 1 2 0 4 4 -2 1 1 6 2 2 -7 -4 -3 -3 0 -2 -0 -1 -4
-1 -1 -2 -4 -3 -1 -3 -2 2 -1 7 10 6 -4 6 2 1 7 -3 6 -1 -5 9 -10 1 2 5 -13 1 -8 -0 0 1 2 8 -8 12 -8 2 -2 -1 -1 1 -4 -1
0 -6 -1 -4 -2 -3 -6 3 2 18 5 5 3 -0 -9 -1 -1 0 2 1 -4 6 3 -5 -1 3 -4 -2 -0 -1 3 2 2 3 6 -10 7 -3 2 7 -3 -2 -2 -0 -0
2 -2 -2 -4 -3 -3 3 3 13 5 5 3 2 -1 2 -2 -4 -1 1 3 5 8 4 1 -4 -0 1 6 5 7 4 1 9 7 -5 1 7 -8 2 1 4 3 -1 1 3
-10 2 -4 0 4 1 0 8 7 5 1 0 0 -3 3 2 -2 -4 -0 1 2 4 2 2 10 3 -3 -4 -4 -4 -1 1 0 2 0 1 -2 13 1 1 2 2 3 -0 -1
-2 -3 1 -1 1 -0 5 3 6 1 3 1 -8 1 -2 -1 6 2 1 1 2 3 8 3 2 2 0 -0 -0 2 4 -3 3 0 8 -4 3 10 -0 -1 -2 -1 -3 -1 -3
3 1 -5 -3 -1 -5 3 1 1 0 0 -1 2 3 1 -1 3 2 1 3 -1 3 4 -7 4 -0 3 3 3 7 -1 7 3 2 0 1 -1 2 -1 0 -1 -4 -0 -3 -3
2 5 -4 -3 -9 1 -0 2 0 0 1 3 1 0 0 2 3 -2 -5 -0 -0 -4 2 3 11 4 6 1 -5 6 3 2 2 3 4 1 2 1 2 2 1 1 0 0 -1
-1 -0 -4 -9 1 -0 0 2 -1 0 -1 -0 4 2 2 0 0 1 -0 3 -0 3 -0 -3 3 1 -12 1 1 -1 -2 -2 4 4 1 5 -1 0 -1 0 1 0 0 1 1
-1 -0 -6 -5 -0 1 2 1 0 -1 -0 -0 -0 2 0 2 3 3 -0 -1 1 -0 1 1 -6 4 8 10 5 2 0 -0 1 0 -2 3 3 1 0 -1 -1 1 -0 -1 -0
-4 1 2 -3 -3 -3 -0 1 0 -2 -0 -0 0 4 0 -0 -2 -4 -3 -5 -1 2 3 8 1 2 -2 4 -4 3 1 0 0 2 -0 -4 -6 -8 -3 -0 1 -0 1 1 -1
-1 1 -4 2 4 -0 -0 0 -0 -1 0 -0 -1 -0 2 0 -2 -1 -3 -10 -8 0 -2 9 1 1 -0 0 -0 -1 -1 -0 2 -4 6 -6 3 -2 0 2 1 -1 1 1 -2
-2 3 -3 0 -1 0 1 0 1 -3 3 -3 5 -2 2 5 5 -2 10 2 3 -4 -0 -3 4 -1 -2 0 0 0 -0 0 0 -1 0 1 -6 2 -3 2 1 1 -0 1 -1
-3 -2 2 0 1 0 0 -0 -1 2 -5 2 3 7 1 -1 2 -2 2 1 -1 9 -0 3 1 -0 -0 0 -0 4 -2 -0 -0 0 5 4 2 -1 -2 -0 2 2 3 2 -0
Height
1515 1514 1512 1511 1508 1506 1504 1501 1501 1499 1497 1495 1494 1492 1490 1488 1485 1482 1479 1478 1477 1477 1479 1482 1484 1488 1490 1490 1489 1488 1477 1466 1465 1471 1470 1471 1471 1471 1473 1474 1472 1474 1473 1475 1475
1511 1510 1508 1508 1506 1504 1502 1499 1498 1496 1494 1492 1490 1489 1488 1485 1480 1476 1475 1473 1470 1473 1475 1481 1483 1487 1486 1486 1485 1482 1470 1459 1461 1467 1469 1470 1468 1468 1469 1468 1469 1469 1471 1472 1473
1509 1507 1505 1505 1503 1501 1499 1497 1495 1493 1490 1488 1487 1485 1484 1483 1479 1473 1470 1470 1469 1471 1475 1477 1481 1483 1482 1481 1480 1473 1464 1462 1467 1470 1470 1468 1466 1467 1466 1464 1464 1465 1466 1468 1470
1507 1505 1503 1502 1501 1498 1496 1494 1491 1490 1487 1485 1483 1483 1482 1480 1479 1472 1469 1470 1469 1470 1473 1476 1476 1480 1478 1475 1475 1473 1469 1468 1466 1467 1469 1466 1465 1461 1459 1459 1462 1459 1460 1463 1465
1504 1503 1500 1500 1498 1496 1494 1492 1488 1486 1484 1482 1480 1479 1479 1480 1475 1470 1468 1468 1470 1469 1472 1473 1473 1472 1473 1471 1471 1470 1466 1465 1466 1466 1465 1464 1459 1454 1453 1455 1455 1454 1455 1456 1457
1502 1500 1498 1497 1496 1493 1490 1488 1485 1483 1481 1478 1477 1475 1477 1474 1466 1468 1467 1468 1469 1469 1470 1472 1471 1471 1470 1470 1469 1463 1465 1462 1463 1462 1460 1458 1452 1453 1449 1449 1448 1449 1448 1449 1449
1498 1498 1495 1493 1492 1489 1486 1484 1481 1479 1476 1475 1473 1471 1475 1465 1464 1464 1465 1464 1465 1469 1470 1469 1471 1471 1469 1468 1467 1467 1464 1459 1456 1455 1453 1454 1446 1441 1441 1441 1441 1440 1441 1441 1442
1493 1493 1492 1489 1488 1485 1482 1480 1478 1473 1472 1469 1468 1469 1466 1460 1462 1461 1460 1461 1462 1463 1465 1469 1468 1469 1469 1468 1467 1467 1460 1457 1445 1448 1449 1451 1438 1432 1435 1435 1434 1433 1433 1432 1432
1491 1489 1488 1486 1483 1482 1479 1477 1472 1470 1467 1466 1468 1466 1463 1460 1460 1460 1460 1460 1460 1460 1462 1466 1468 1466 1468 1465 1464 1461 1455 1448 1447 1447 1446 1443 1433 1431 1432 1433 1430 1428 1426 1424 1425
1488 1486 1485 1482 1480 1478 1476 1472 1469 1468 1468 1465 1464 1467 1461 1462 1462 1459 1459 1459 1459 1461 1461 1465 1464 1460 1459 1458 1453 1450 1454 1446 1449 1443 1444 1441 1433 1431 1429 1427 1425 1423 1420 1419 1419
1486 1484 1482 1480 1477 1476 1473 1471 1475 1472 1466 1464 1461 1462 1457 1459 1459 1458 1460 1459 1457 1459 1455 1456 1456 1451 1448 1453 1452 1450 1450 1451 1447 1444 1444 1438 1428 1423 1420 1417 1414 1414 1413 1412 1412
1484 1482 1481 1476 1477 1473 1474 1472 1475 1475 1464 1457 1458 1459 1454 1454 1456 1453 1456 1458 1451 1449 1452 1454 1447 1442 1446 1451 1454 1451 1448 1443 1439 1440 1439 1430 1421 1415 1411 1407 1405 1405 1405 1405 1406
1483 1480 1479 1474 1476 1476 1475 1473 1470 1469 1467 1457 1458 1458 1455 1455 1453 1450 1452 1452 1446 1446 1446 1442 1437 1442 1445 1448 1451 1447 1446 1443 1442 1438 1433 1425 1407 1396 1397 1395 1395 1396 1397 1398 1400
1480 1479 1477 1475 1477 1476 1475 1471 1469 1468 1455 1454 1454 1456 1456 1456 1453 1449 1449 1452 1446 1442 1443 1443 1438 1442 1444 1444 1444 1441 1438 1442 1442 1441 1429 1422 1415 1393 1391 1387 1389 1390 1390 1391 1395
1479 1477 1476 1474 1475 1476 1474 1469 1467 1469 1442 1453 1454 1456 1455 1456 1453 1449 1449 1450 1445 1442 1445 1438 1440 1438 1439 1437 1440 1437 1439 1439 1438 1437 1430 1422 1422 1386 1384 1387 1385 1383 1384 1386 1389
1476 1475 1475 1475 1473 1472 1469 1469 1467 1454 1444 1452 1456 1456 1454 1452 1447 1449 1449 1450 1446 1443 1439 1436 1439 1437 1432 1434 1435 1438 1439 1437 1434 1434 1435 1411 1409 1384 1386 1396 1392 1390 1389 1389 1390
1475 1473 1474 1474 1476 1470 1468 1469 1455 1445 1456 1460 1463 1461 1455 1453 1447 1447 1442 1442 1437 1441 1432 1430 1432 1432 1435 1434 1436 1437 1436 1428 1429 1437 1412 1403 1406 1386 1392 1395 1394 1393 1394 1393 1391
1475 1473 1474 1474 1471 1469 1467 1465 1452 1461 1462 1465 1465 1459 1454 1457 1448 1447 1439 1434 1434 1433 1428 1425 1426 1426 1426 1428 1425 1428 1428 1422 1422 1409 1400 1401 1400 1385 1394 1394 1396 1397 1397 1396 1393
1472 1475 1474 1472 1472 1468 1470 1457 1456 1466 1472 1470 1462 1456 1452 1456 1457 1447 1441 1439 1433 1431 1434 1425 1421 1425 1425 1426 1426 1428 1429 1422 1428 1421 1421 1393 1383 1389 1389 1394 1401 1398 1396 1397 1394
1473 1472 1474 1473 1470 1471 1468 1465 1469 1475 1475 1472 1467 1464 1460 1458 1459 1450 1441 1448 1452 1448 1448 1427 1424 1421 1424 1426 1428 1423 1421 1433 1427 1424 1410 1382 1382 1384 1394 1402 1401 1398 1398 1398 1395
1472 1473 1474 1474 1471 1474 1468 1469 1475 1477 1478 1475 1471 1471 1467 1465 1461 1455 1446 1445 1454 1449 1448 1428 1420 1421 1422 1421 1416 1425 1427 1428 1427 1423 1407 1395 1383 1393 1403 1407 1402 1402 1404 1401 1396
1471 1474 1474 1474 1476 1474 1470 1476 1479 1477 1478 1477 1476 1472 1470 1466 1461 1458 1451 1446 1455 1457 1449 1431 1420 1413 1413 1416 1412 1410 1414 1415 1413 1416 1417 1417 1394 1395 1402 1402 1402 1406 1404 1403 1398
1472 1476 1476 1475 1473 1472 1476 1477 1478 1477 1477 1476 1474 1472 1470 1468 1467 1456 1453 1452 1454 1457 1454 1452 1419 1413 1414 1416 1413 1413 1416 1421 1422 1421 1414 1417 1395 1396 1399 1399 1406 1406 1404 1403 1400
1474 1475 1478 1478 1476 1475 1479 1478 1476 1479 1478 1478 1474 1472 1470 1466 1460 1459 1452 1450 1454 1452 1451 1452 1430 1407 1401 1402 1401 1412 1412 1412 1415 1417 1412 1407 1397 1391 1392 1393 1399 1407 1405 1405 1403
1474 1476 1477 1475 1476 1477 1478 1479 1478 1477 1477 1477 1471 1475 1475 1469 1461 1454 1453 1455 1446 1445 1445 1436 1419 1416 1411 1410 1408 1408 1410 1410 1410 1410 1411 1401 1399 1396 1393 1394 1395 1406 1406 1405 1406
1475 1475 1476 1476 1479 1478 1478 1476 1477 1477 1480 1474 1474 1471 1471 1469 1466 1459 1455 1454 1449 1446 1445 1432 1421 1428 1426 1414 1412 1412 1408 1409 1409 1407 1405 1402 1397 1393 1395 1396 1401 1405 1408 1407 1409
1474 1474 1474 1478 1477 1478 1478 1478 1478 1480 1478 1476 1476 1474 1468 1464 1463 1462 1456 1455 1455 1452 1445 1433 1421 1425 1428 1414 1409 1410 1407 1407 1408 1405 1405 1404 1400 1395 1395 1401 1405 1410 1410 1409 1409